Location: Newark
(45.4333°N, 73.7333°W)
Time: 16:39:28
(UTC+00:00)

N. Korean satellite - Visible Passes

Search period start: 22 September 2019 00:00
Search period end: 02 October 2019 00:00
Orbit: 455 x 509 km, 97.2° (Epoch: 21 September)

Date Brightness Start Highest point End Pass type
(mag) Time Alt. Az. Time Alt. Az. Time Alt. Az.
23 Sep 9.8 10:01:44 10° NE 10:04:01 16° E 10:06:15 10° SE visible
27 Sep 10.0 09:54:35 10° ENE 09:56:23 14° E 09:58:13 10° ESE visible
28 Sep 10.5 23:14:41 10° WSW 23:15:52 11° W 23:17:03 10° WNW visible
30 Sep 9.5 10:11:27 10° NE 10:14:12 22° E 10:16:58 10° SSE visible
01 Oct 10.3 09:47:37 10° ENE 09:48:45 11° E 09:49:54 10° ESE visible
